General Mariano Matamoros Airport

Jump to: basic info | weather | frequencies | runways | comments

Related pages: nearby airports | nearby navaids | notams | map

Basic information (top)

Codes: CVJ MMCB
Location: lon 18.834801, lat -99.261299, elev 4,277 ft / 1,304 m msl
Status: medium_airport
Scheduled airline service: yes
Links: Wikipedia Mobile

Weather (top)

Current conditions (rec'd 2014/09/18 04:41Z):

MMCB 180441Z 00000KT 12SM SKC 19/16 A3014

Airport forecast (rec'd 2014/09/17 18:15Z):

TAF MMCB 171712Z 1718/1818 18010KT P6SM BKN025 BKN080 OVC250 
      TEMPO 1721/1801 4SM RA BKN020CB 
     FM180100 00000KT 5SM RA BKN020 OVC080 
     FM180600 00000KT 6SM HZ BKN015 
      TEMPO 1812/1816 2SM BR BKN005

Frequencies (top)

Verify before use: may be inaccurate or out of date.

APP: 128.9 MHz (TOLUCA APP)
TWR: 118.35 MHz (CUERNAVACA TWR)

Runways (top)

02/20: 9,439 x 148 ft (2,877 x 45 m) — paved — lighted — threshold 20 displaced 260 ft (79 m)

Latest comments (top)

No comments yet for General Mariano Matamoros Airport

More... (top)

See also NOTAMs and nearby airports and navaids, or visit the General Mariano Matamoros Airport page at the main OurAirports website..